Weather Roundup
Issued by NWS Chicago, IL

Home | Current Version | Previous Version | Text Only | Print | Product List | Glossary On
Versions: 1 2 3 4 5 6 7 8 9 10 11 12 13 14 15 16 17 18 19 20 21 22 23 24 25 26 27 28 29 30 31 32 33 34 35 36 37 38 39 40 41 42 43 44 45 46 47 48 49 50
000
NZUS59 KLOT 232010
HRRLOT

CHICAGO AREA WEATHER ROUNDUP
NATIONAL WEATHER SERVICE CHICAGO/ROMEOVILLE IL
200 PM CST SUN NOV 23 2014

NOTE: "FAIR" INDICATES FEW OR NO CLOUDS BELOW 12,000 FEET WITH NO
SIGNIFICANT WEATHER AND/OR OBSTRUCTIONS TO VISIBILITY.

* THESE STATIONS ARE NOT UNDER NWS QUALITY CONTROL. THEY ALSO MAY NOT
  REPORT WEATHER SUCH AS PRECIPITATION OR FOG.

ILZ005-006-012>014-019>023-232100-
NORTHEAST ILLINOIS

CITY           SKY/WX    TMP DP  RH WIND       PRES   REMARKS
OHARE          LGT RAIN  51  48  89 SE10      29.52F
MIDWAY         LGT RAIN  53  48  83 SE12      29.53F
AURORA         CLOUDY    51  47  86 SE10      29.51F FOG
LANSING*       RAIN      50  47  90 SE7       29.55F
JOLIET*        LGT RAIN  50  48  93 SE7       29.51F
WAUKEGAN       LGT RAIN  46  44  93 SE10      29.52F FOG
DUPAGE AIRPORT LGT RAIN  50  48  93 S10       29.51F
WHEELING       LGT RAIN  51  48  89 SE9       29.54F
KANKAKEE*      LGT RAIN  51  50  94 SE10G18   29.53F
MORRIS*        LGT RAIN  52  50  93 SE13G20   29.49F
LEWIS AIRPORT* LGT RAIN  50  48  93 SE10      29.51F
NORTHERLY IS     N/A     43  41  93 SE5         N/A
$$

WIZ051-052-058>065-066-070>072-232100-
SOUTHEAST WISCONSIN

CITY           SKY/WX    TMP DP  RH WIND       PRES   REMARKS
MILWAUKEE      LGT RAIN  47  44  90 SE10      29.52F FOG
KENOSHA*       LGT RAIN  51  48  89 SE8       29.52F FOG
RACINE*        LGT RAIN  46  44  93 S13       29.55F FOG
BURLINGTON     RAIN      48  47  98 S6        29.51F
WAUKESHA       RAIN      46  46 100 SE5       29.52F FOG
WEST BEND      DRIZZLE   46  45  93 SE5       29.50F
$$

INZ001>003-010>013-019-020-232100-
NORTHWEST INDIANA

CITY           SKY/WX    TMP DP  RH WIND       PRES   REMARKS
GARY*          LGT RAIN  52  48  87 S10       29.56F
MICHIGAN CITY* NOT AVBL
RENSSELAER*    NOT AVBL
VALPARAISO     LGT RAIN  50  47  89 SE7       29.57F
$$

LMZ740>746-232100-
SOUTHERN LAKE MICHIGAN

STATION/POSITION TIME  SKY/WX   TEMP WIND        PRES    VSBY
                                AIR  DIR/SP/G
                 (UTC)          (F)  (DEG/KT/KT) (MB)    (MI)
HARRISON CRIB    2000            46  150/ 11/ 12   N/A
BURNHAM HARBOR   2000            43  150/  5/ 11   N/A
CALUMET HARBOR   2000            51  150/  9/ 12  999.6F
BURNS HARBOR     NOT AVBL
MICHIGAN CITY    2000            51  120/ 10/ 13   N/A
$$

ABBREVIATIONS USED IN REMARKS
   TC - TEMPERATURE IN CELSIUS
  WCI - WIND CHILL INDEX
   HX - HEAT INDEX
  VSB - VISIBILITY
$$



USA.gov is the U.S. government's official web portal to all federal, state and local government web resources and services.